GGOVGABS

Guest
Details From GGOV - BISSAU OSWALDO VIEIRA INTL
To GABS - Bamako Senou
Flight Number -
Tags generated
Created
Modified
Stats Distance 504 nm / 933 km
Max Altitude 35,000 ft / 10,668 m
Waypoints 7
Social Downloads 1
Likes 0
Share VATSIM

Download

Looking for another format? Having issues loading an existing format? Contact us
Advertisement - Login to hide

Notes

Basic altitude profile: - Ascent Rate: 2500ft/min - Ascent Speed: 250kts - Cruise Altitude: 35000ft - Cruise Speed: 420kts - Descent Rate: 1500ft/min - Descent Speed: 250kts Options: - Use NATs: no - Use PACOTS: no - Use low airways: yes - Use high airways: yes

Route

GGOV POGRA NASLO UR979 KOLIP UA612 NEGLO GABS

ID Type Via Altitude Latitude Longitude Leg Dist Tot Dist Heading (true) Name
O GGOV APT - 0 ft / 0 m 11.89017˚ -15.64883˚ - 0 nm - BISSAU OSWALDO VIEIRA INTL
POGRA FIX - 31,200 ft / 9,510 m 11.66667˚ -14.17667˚ 87 nm 87 nm 99° / 99° -
NASLO FIX - 35,000 ft / 10,668 m 11.78333˚ -13.15000˚ 60 nm 148 nm 83° / 83° -
LUGMI FIX UR979 (AWY-HI) 35,000 ft / 10,668 m 11.25000˚ -12.36667˚ 56 nm 204 nm 125° / 125° -
KOLIP FIX UR979 (AWY-HI) 35,000 ft / 10,668 m 10.66667˚ -11.55000˚ 59 nm 264 nm 126° / 126° -
NEGLO FIX UA612 (AWY-HI) 25,000 ft / 7,620 m 11.93333˚ -9.15000˚ 160 nm 424 nm 61° / 62° -
O GABS APT - 0 ft / 0 m 12.53354˚ -7.94994˚ 79 nm 503 nm 63° / 63° Bamako Senou

Altitude Profile

Advertisement - Login to hide

Weather


0- 5 10 15 20 25 30 35+ Temperature / ° C

Clouds and Precipitation
Forecast for 2018-05-25 00:00 UTC. Updated 4 hours ago

Ground ~20,000 ft ~40,000 ft Winds

GGOV

Details ICAO GGOV (OXB)
Name BISSAU OSWALDO VIEIRA INTL
Region Guinea Bissau
Timezone Africa/Bissau (UTC+0.0)
Stats Elevation 129 ft / 39 m (AMSL)
Location 11.890166° -15.648833°
Runways 1
Magnetic Variation 7.191° W

METAR

GGOV 250300Z 25006KT 8000 NSC 22/21 Q1011 NOSIG

Decode

TAF

TAF GGOV 242300Z 2500/2524 23008KT CAVOK= TAF GQPP 242300Z 2500/2524 36015KT 7000 NSC PROB30 TEMPO 2505/2509 BKN006

Decode

Departure Runways

ID Width Length Bearing (true) Bearing (mag) Surface Threshold Offset Overrun Length
03 148 ft / 45 m 10,509 ft / 3,203 m 22.10° 29.29° Asphalt 0 ft / 0 m 1,312 ft / 400 m
21 148 ft / 45 m 10,509 ft / 3,203 m 202.10° 209.29° Asphalt 0 ft / 0 m 656 ft / 200 m

GABS

Details ICAO GABS (BKO)
Name Bamako Senou
Region Mali
Timezone Africa/Bamako (UTC+0.0)
Stats Elevation 1,246 ft / 380 m (AMSL)
Location 12.533544° -7.949943°
Runways 1
Magnetic Variation 4.116° W

METAR

GABS 250330Z 21006KT 9999 FEW030 30/21 Q1011 NOSIG

Decode

TAF

TAF GABS 241700Z 2418/2524 20008KT 9999 FEW030 PROB40 TEMPO 2500/2506 06015G35KT 4000 BLDU TSRA BKN015 FEW033CB PROB40 TEMPO 2615/2622 VRB15G30KT 3000 BLDU TSRA BKN015 FEW033CB

Decode

Destination Runways

ID Width Length Bearing (true) Bearing (mag) Surface Threshold Offset Overrun Length
06 148 ft / 45 m 8,888 ft / 2,709 m 56.51° 60.63° Asphalt 0 ft / 0 m 327 ft / 100 m
24 148 ft / 45 m 8,888 ft / 2,709 m 236.51° 240.63° Asphalt 0 ft / 0 m 327 ft / 100 m

Approach Navaids

Runway Type Ident Frequency Range Bearing (true) Bearing (mag) Slope Elevation
06 Localiser IBS 109.50 MHz 18 nm / 33 km 56.53° 60.65° - 1,246 ft / 380 m (AMSL)
06 Glidescope IBS 109.50 MHz 10 nm / 19 km 56.51° 60.63° 3.00° 1,246 ft / 380 m (AMSL)
06 DME IBS 109.50 MHz 18 nm / 33 km - - - 1,214 ft / 370 m (AMSL)

Popular Alternatives